Torna al catalogo

FENGYUN 1C DEB

AttivoPO
NORAD 30119·DEBRIS·🇨🇳 China

Lanciato May 10, 1999 da Taiyuan Satellite Launch Center

Loading…

Prossimi Passaggi (prossime 24 ore)

TLE

AggiornatoSource: Space-Track

Epoca: Sep 13, 2026, 20:25 UTC

1 30119U 99025RY  26256.85116183  .00001455  00000-0  59989-3 0  9991
2 30119  97.9389 228.7718 0127488 197.7586 224.4094 14.23817850 10745

Traccia FENGYUN 1C DEB in tempo reale con AllMySat

Download on the App Store